Location: Praha
(50.0830°N, 14.4670°E)
Time: 06:18:45
(UTC+01:00)

ISS - Pass Details

Date: 11 December 2019
Orbit: 411 x 421 km, 51.6° (Epoch: 15 December)

Event Time Altitude Azimuth Distance (km) Brightness Sun altitude
Rises 17:36:11 0° 282° (WNW) 2,358 1.1 -14.5°
Reaches altitude 10° 17:38:55 10° 258° (WSW) 1,493 0.4 -14.9°
Maximum altitude 17:40:54 15° 222° (SW) 1,228 -0.5 -15.2°
Drops below altitude 10° 17:42:53 10° 185° (S) 1,490 -0.7 -15.5°
Sets 17:45:37 0° 161° (SSE) 2,351 0.0 -15.9°
